SCP
-0 0 0 0 0 1 2 2 3 5 5 4 3 1 1 3 2 1 1 1 0 0 0 0 0 0 0 0 0 0 0 0 0 0 0 0 0 0 0 0 0 0 0
0 0 0 0 0 1 2 3 3 5 3 2 2 1 2 1 1 2 1 1 0 0 0 0 0 0 0 0 0 0 -0 0 0 0 0 0 0 0 0 0 0 0 0
0 0 0 1 1 2 2 2 3 5 3 0 2 2 2 3 2 1 2 1 0 0 0 0 0 0 0 0 0 0 0 0 0 0 0 0 0 0 0 0 0 0 0
0 0 0 1 1 2 2 2 3 5 2 -0 0 3 2 1 1 1 1 1 0 0 0 0 0 0 0 0 0 0 0 0 0 0 0 0 0 0 0 0 0 0 0
0 0 0 0 1 2 2 2 3 4 2 2 0 2 2 0 1 1 1 1 1 0 0 0 0 0 0 0 0 0 0 0 0 0 0 0 0 0 0 0 0 0 0
0 0 0 0 0 1 2 3 4 3 2 2 1 1 2 2 1 1 0 1 0 0 0 0 0 0 0 0 0 0 0 0 0 -0 -0 0 0 0 0 0 0 0 0
0 0 0 0 0 1 1 1 3 4 2 2 1 1 1 1 1 1 0 0 0 0 1 0 0 0 0 0 0 0 0 0 0 0 0 0 0 0 0 0 0 0 0
0 0 0 0 0 0 1 1 1 3 3 2 2 2 2 1 1 1 0 0 -0 -0 0 0 0 0 0 0 0 0 0 0 0 0 0 0 -0 -0 0 0 0 0 0
0 0 0 0 0 0 1 1 1 1 2 2 2 1 1 2 1 1 1 0 0 -0 0 0 0 0 0 0 0 0 0 0 0 0 0 0 0 0 0 0 0 0 0
0 0 0 0 0 0 1 1 0 1 3 1 1 1 1 1 1 1 0 0 0 -0 0 0 0 0 0 0 0 0 0 0 0 1 0 0 0 0 0 0 0 0 0
0 0 0 0 0 0 0 1 1 2 2 1 1 1 1 1 1 1 0 0 0 0 0 0 0 0 0 0 0 0 0 0 0 0 0 0 0 0 0 0 0 0 0
0 0 0 0 1 1 0 1 1 1 1 0 0 1 0 0 0 0 0 0 0 0 0 0 0 0 0 0 0 0 0 0 0 0 0 0 0 0 0 0 0 0 0
0 0 0 0 1 1 1 1 1 1 1 0 1 1 1 0 0 0 0 0 0 0 0 0 0 0 0 0 0 0 0 0 0 0 0 0 0 0 0 0 0 0 0
0 0 0 0 0 0 0 2 1 1 0 0 0 0 0 0 0 0 0 0 0 0 0 0 0 0 0 0 0 0 0 0 0 0 0 0 0 0 0 0 0 0 0
0 0 0 0 0 0 0 1 1 1 0 0 0 0 0 0 0 0 0 0 0 0 0 0 0 0 0 0 0 0 0 0 0 0 0 0 0 0 0 0 0 0 0
0 0 0 1 0 0 0 1 1 1 0 0 0 0 0 0 0 0 0 0 0 0 0 0 0 0 0 0 0 0 0 0 0 0 0 0 0 0 0 0 0 0 0
0 0 0 1 1 0 0 0 1 0 0 0 0 0 0 0 0 0 0 0 0 0 0 0 0 0 0 0 0 0 0 0 0 0 0 0 0 0 0 0 0 0 0
0 0 0 1 1 0 0 0 0 0 0 0 0 0 0 0 0 0 0 0 0 0 0 0 0 0 0 0 0 0 0 0 0 0 0 0 0 0 0 0 0 0 0
0 0 1 1 1 0 0 0 0 0 0 0 0 0 0 0 0 0 0 0 0 0 0 0 0 0 0 0 0 0 0 0 0 0 0 0 0 0 0 0 0 0 0
0 1 1 2 2 1 1 0 0 0 0 0 0 0 0 0 0 0 0 0 0 0 0 0 0 0 0 0 0 0 0 0 0 0 0 0 0 0 0 0 0 0 0
1 1 1 2 3 1 2 1 1 0 0 0 0 0 0 0 0 0 0 0 0 0 0 0 0 0 0 0 0 0 0 0 0 0 0 0 0 0 0 0 0 0 0
1 1 2 2 4 3 2 1 1 2 1 0 0 0 0 0 0 0 0 0 0 0 0 0 0 0 0 0 0 0 0 0 0 0 0 0 0 0 0 0 0 0 0
0 1 2 3 5 5 3 2 2 1 1 1 1 1 0 0 0 0 0 0 0 0 0 0 0 0 0 0 0 0 0 0 0 0 0 0 0 0 0 0 0 0 0
2 1 4 3 7 7 4 3 2 1 1 1 1 1 0 0 0 0 0 0 0 0 0 0 0 0 0 0 0 0 0 0 0 0 0 0 0 0 0 0 0 0 0
1 3 4 6 6 6 5 4 3 2 2 2 1 0 0 0 0 0 0 0 0 0 0 0 0 0 0 0 0 0 0 0 0 0 0 0 0 0 0 0 0 0 0
1 2 4 8 8 6 4 3 3 3 3 3 0 0 0 0 0 0 0 0 0 0 0 0 0 0 0 0 0 0 0 0 0 0 0 0 0 0 0 0 0 0 0
Wind_Speed_500mb
27 18 10 7 12 8 7 11 21 32 40 35 30 25 27 28 28 24 26 29 29 20 28 19 17 22 11 19 20 14 10 9 9 10 10 19 23 27 25 21 20 18 27
21 19 16 12 8 17 12 13 16 25 33 29 26 23 24 30 28 20 27 37 30 27 25 27 15 19 12 20 19 13 13 10 15 14 17 10 22 23 21 23 24 23 24
5 20 23 20 19 24 18 14 18 24 25 25 25 29 29 29 28 23 25 34 36 34 29 27 21 19 22 18 23 17 12 13 8 19 19 8 7 19 11 27 28 29 38
15 11 11 25 24 24 18 18 21 24 22 34 20 28 21 19 21 19 24 33 33 27 32 32 29 26 24 8 15 16 14 19 12 14 16 17 26 22 17 15 25 35 34
10 8 2 2 3 16 20 13 17 17 17 19 28 20 26 24 23 30 26 22 27 29 25 32 34 34 23 24 24 25 19 18 21 17 20 19 15 17 19 32 26 25 29
19 26 29 31 30 7 1 8 15 13 17 19 19 34 27 22 23 23 21 26 33 38 36 34 39 33 30 24 27 25 24 32 27 32 30 18 20 24 25 33 34 37 28
27 24 26 25 27 21 13 14 12 14 13 17 21 24 26 30 36 37 33 27 34 35 43 33 36 37 35 30 29 30 32 32 30 30 36 31 33 27 30 36 39 45 39
19 16 24 21 21 16 15 15 15 10 11 17 21 24 28 31 28 28 18 27 32 30 33 29 35 34 40 38 31 32 38 35 36 38 34 35 35 31 37 40 38 47 46
10 18 28 23 23 25 17 21 17 7 3 7 18 31 29 36 36 33 31 24 38 29 30 25 29 29 34 37 39 41 37 34 40 43 39 40 39 40 38 35 37 45 48
19 16 24 22 20 22 26 21 17 13 10 21 28 25 23 27 26 27 29 31 34 36 30 19 22 34 36 37 35 38 35 35 40 45 42 41 42 42 39 35 41 48 47
18 16 21 21 17 19 21 19 18 15 21 21 21 18 22 24 27 31 27 25 28 31 34 33 30 31 30 32 38 44 39 38 39 41 42 42 41 42 41 36 51 54 49
16 19 19 21 18 20 20 18 13 15 15 16 17 12 20 22 22 31 28 25 24 23 28 22 22 25 32 31 31 34 34 30 37 41 39 42 46 44 40 47 58 46 42
19 22 16 20 19 20 18 12 14 15 14 15 14 23 25 25 29 31 22 16 19 18 20 24 26 28 29 31 33 30 30 29 26 38 43 49 40 38 46 52 51 49 45
21 18 15 17 19 20 16 10 12 12 12 15 13 15 18 22 24 32 23 12 13 16 18 19 21 25 23 27 32 31 33 34 43 42 39 39 45 48 49 47 45 46 50
21 17 17 13 15 16 13 10 9 11 12 14 16 19 15 15 20 21 26 13 9 14 16 18 18 15 25 21 24 28 36 38 40 36 35 37 41 45 50 58 53 51 51
18 13 10 8 9 9 8 8 9 11 11 12 13 14 10 13 16 17 13 15 10 11 12 13 16 16 14 23 29 35 43 40 40 42 42 46 51 50 55 56 57 54 53
14 6 7 6 2 4 5 6 8 10 9 11 10 7 7 11 12 13 14 14 14 10 10 8 11 14 18 24 31 35 34 34 35 38 37 35 34 38 49 53 52 52 57
12 7 7 6 5 2 3 6 8 8 11 8 6 6 7 8 12 15 17 19 18 15 16 15 15 21 22 26 33 31 32 37 39 41 46 50 56 56 57 57 59 55 46
12 13 10 12 8 5 7 5 6 10 12 11 8 9 11 13 13 15 23 19 19 16 15 18 23 25 28 32 34 34 35 37 35 40 44 46 48 46 49 53 56 53 55
14 14 12 15 11 9 14 7 9 10 13 16 13 13 17 17 19 20 20 19 18 14 23 18 15 22 25 26 26 31 33 37 36 40 39 45 46 45 55 57 52 48 43
20 19 18 16 18 17 18 14 12 15 17 19 16 17 18 22 20 17 28 20 17 19 16 24 25 21 22 21 20 23 26 37 51 49 40 37 50 45 52 42 35 38 45
16 21 24 23 26 26 24 22 22 24 22 20 19 20 21 19 18 22 20 18 16 21 26 16 10 23 26 17 21 34 46 55 45 41 37 42 49 47 37 39 31 37 39
15 30 26 26 32 35 33 30 29 25 23 22 23 24 21 18 22 25 19 23 23 9 12 19 21 17 19 25 41 52 53 44 36 37 45 49 42 33 38 35 37 38 37
24 34 31 36 38 41 38 38 31 26 23 22 21 24 22 22 24 21 20 18 23 28 31 30 24 19 21 25 37 53 59 50 44 43 41 23 34 37 29 23 32 31 35
40 44 42 47 48 46 43 41 33 30 27 22 21 26 29 32 16 27 27 24 33 28 27 18 16 19 20 28 37 51 64 46 34 32 20 31 23 23 34 37 45 47 34
45 45 48 53 58 57 47 32 34 34 25 17 16 29 36 27 18 29 29 20 27 24 23 25 21 22 19 29 36 56 53 28 22 27 28 23 35 30 33 42 43 48 34
Wind_Direction_500mb
145 149 170 196 267 243 215 198 191 205 213 218 220 214 225 231 234 236 239 229 245 223 241 262 266 285 233 239 266 261 291 318 271 291 266 264 224 217 227 245 239 254 239
171 164 189 207 236 276 259 236 209 218 213 207 224 228 234 243 238 247 229 230 234 230 231 259 215 268 253 269 306 274 218 221 270 282 319 259 223 245 251 228 241 248 250
46 178 204 213 232 269 275 253 233 229 220 190 229 234 228 216 220 245 239 237 242 227 231 241 258 237 257 249 279 301 244 248 310 264 304 317 2 320 273 248 242 251 253
188 174 223 233 223 236 265 270 249 225 231 196 210 237 249 248 270 247 247 246 257 250 223 242 247 248 250 217 264 291 280 268 282 309 265 261 293 305 294 304 268 291 276
144 192 201 143 183 217 232 264 270 240 221 247 210 235 264 239 271 264 246 246 243 243 244 229 246 255 254 227 234 245 258 251 249 262 289 310 269 280 281 292 290 297 291
139 78 54 46 39 86 189 237 237 258 260 240 268 232 222 251 251 269 234 248 250 253 257 231 238 252 253 254 240 253 262 259 248 243 252 274 290 286 292 277 292 289 296
57 57 57 36 36 27 22 347 259 241 262 260 264 277 277 259 252 263 247 248 244 240 252 259 236 245 264 257 248 242 253 256 272 258 252 254 258 269 276 291 282 289 281
51 57 85 51 28 18 24 10 358 242 246 280 274 288 278 272 277 279 278 252 243 252 241 251 249 241 255 263 257 251 255 258 263 269 261 266 264 264 262 272 284 294 288
85 62 87 69 40 31 47 37 10 334 297 267 285 298 290 273 280 261 264 261 245 246 272 232 239 250 262 263 258 256 251 263 252 261 270 272 275 277 275 261 267 282 285
75 56 83 71 53 35 28 25 20 338 308 326 307 304 304 289 289 281 277 246 244 239 234 244 255 259 267 262 261 263 258 262 265 261 267 271 278 278 278 263 282 276 282
62 55 73 61 62 36 25 22 24 31 6 347 357 353 328 321 312 305 292 267 254 248 237 249 252 264 276 269 265 260 254 254 269 263 272 279 282 278 277 269 268 272 269
85 63 51 52 58 45 31 23 27 8 1 347 337 318 339 334 311 306 298 281 254 248 253 266 266 272 278 275 280 273 268 260 255 270 278 281 280 277 275 267 284 280 274
79 73 36 44 52 43 28 29 25 10 3 358 9 350 349 349 344 342 319 291 257 263 261 260 263 264 268 274 286 288 287 293 260 276 278 282 281 277 275 283 283 271 270
73 72 45 40 41 35 22 37 23 5 5 353 352 359 353 355 354 349 346 316 276 270 277 275 276 280 268 273 276 275 272 280 285 286 280 276 279 282 291 283 282 280 279
74 55 54 43 27 22 26 22 19 357 359 349 345 357 8 336 344 2 7 359 315 282 279 283 289 293 289 301 289 278 288 290 292 289 286 288 287 288 289 292 293 282 269
65 53 44 52 37 20 13 356 1 349 355 352 350 339 12 6 7 359 3 7 359 316 320 312 299 314 329 291 287 288 295 297 295 294 288 280 277 280 291 289 290 284 281
96 75 76 81 77 31 353 343 329 339 333 338 343 2 359 345 349 341 337 349 342 340 316 303 300 289 279 291 296 301 306 310 311 308 309 313 310 295 294 292 288 291 285
123 133 133 133 169 197 279 312 309 319 303 293 312 302 312 313 320 324 319 325 328 330 321 326 323 305 313 301 303 312 316 317 319 322 320 312 309 306 304 304 301 298 296
159 167 167 185 198 182 241 276 300 292 299 269 284 278 295 293 290 293 294 305 306 322 352 323 298 296 297 299 313 318 319 321 313 310 314 313 308 318 319 322 319 310 301
189 182 177 203 206 211 233 242 255 278 283 265 256 264 284 285 288 292 308 314 311 323 292 313 353 328 313 302 305 306 310 315 319 317 315 313 311 317 320 320 322 323 321
209 202 195 211 218 223 230 238 240 252 258 247 254 255 265 270 306 268 298 309 313 314 348 339 324 323 357 349 329 328 330 332 333 329 321 313 313 321 324 325 332 342 339
227 240 229 221 235 237 235 237 238 248 250 261 249 262 263 279 278 293 302 322 320 327 325 351 16 2 349 346 345 337 330 326 326 329 325 305 309 314 319 320 322 325 325
219 236 242 235 229 232 234 236 244 249 250 261 257 267 262 265 272 291 293 306 323 341 320 329 328 340 356 343 330 328 329 329 319 312 305 311 315 325 321 321 324 315 320
266 253 251 241 235 234 235 241 238 240 244 250 259 273 267 262 255 272 302 295 281 293 298 313 294 296 304 310 330 344 340 330 326 322 325 335 346 348 3 341 340 337 327
289 275 261 249 238 229 233 231 236 242 242 239 252 241 258 272 250 280 280 266 283 287 290 289 286 290 303 308 330 339 341 328 329 338 355 348 342 322 335 340 333 333 333
294 294 276 256 238 220 202 222 236 236 227 229 246 293 292 292 277 266 293 283 297 288 274 271 258 288 303 321 331 335 338 327 332 339 334 346 346 346 332 330 330 330 331
Wind_Speed_850mb
27 18 10 7 12 8 7 11 21 32 40 35 30 25 27 28 28 24 26 29 29 20 28 19 17 22 11 19 20 14 10 9 9 10 10 19 23 27 25 21 20 18 27
21 19 16 12 8 17 12 13 16 25 33 29 26 23 24 30 28 20 27 37 30 27 25 27 15 19 12 20 19 13 13 10 15 14 17 10 22 23 21 23 24 23 24
5 20 23 20 19 24 18 14 18 24 25 25 25 29 29 29 28 23 25 34 36 34 29 27 21 19 22 18 23 17 12 13 8 19 19 8 7 19 11 27 28 29 38
15 11 11 25 24 24 18 18 21 24 22 34 20 28 21 19 21 19 24 33 33 27 32 32 29 26 24 8 15 16 14 19 12 14 16 17 26 22 17 15 25 35 34
10 8 2 2 3 16 20 13 17 17 17 19 28 20 26 24 23 30 26 22 27 29 25 32 34 34 23 24 24 25 19 18 21 17 20 19 15 17 19 32 26 25 29
19 26 29 31 30 7 1 8 15 13 17 19 19 34 27 22 23 23 21 26 33 38 36 34 39 33 30 24 27 25 24 32 27 32 30 18 20 24 25 33 34 37 28
27 24 26 25 27 21 13 14 12 14 13 17 21 24 26 30 36 37 33 27 34 35 43 33 36 37 35 30 29 30 32 32 30 30 36 31 33 27 30 36 39 45 39
19 16 24 21 21 16 15 15 15 10 11 17 21 24 28 31 28 28 18 27 32 30 33 29 35 34 40 38 31 32 38 35 36 38 34 35 35 31 37 40 38 47 46
10 18 28 23 23 25 17 21 17 7 3 7 18 31 29 36 36 33 31 24 38 29 30 25 29 29 34 37 39 41 37 34 40 43 39 40 39 40 38 35 37 45 48
19 16 24 22 20 22 26 21 17 13 10 21 28 25 23 27 26 27 29 31 34 36 30 19 22 34 36 37 35 38 35 35 40 45 42 41 42 42 39 35 41 48 47
18 16 21 21 17 19 21 19 18 15 21 21 21 18 22 24 27 31 27 25 28 31 34 33 30 31 30 32 38 44 39 38 39 41 42 42 41 42 41 36 51 54 49
16 19 19 21 18 20 20 18 13 15 15 16 17 12 20 22 22 31 28 25 24 23 28 22 22 25 32 31 31 34 34 30 37 41 39 42 46 44 40 47 58 46 42
19 22 16 20 19 20 18 12 14 15 14 15 14 23 25 25 29 31 22 16 19 18 20 24 26 28 29 31 33 30 30 29 26 38 43 49 40 38 46 52 51 49 45
21 18 15 17 19 20 16 10 12 12 12 15 13 15 18 22 24 32 23 12 13 16 18 19 21 25 23 27 32 31 33 34 43 42 39 39 45 48 49 47 45 46 50
21 17 17 13 15 16 13 10 9 11 12 14 16 19 15 15 20 21 26 13 9 14 16 18 18 15 25 21 24 28 36 38 40 36 35 37 41 45 50 58 53 51 51
18 13 10 8 9 9 8 8 9 11 11 12 13 14 10 13 16 17 13 15 10 11 12 13 16 16 14 23 29 35 43 40 40 42 42 46 51 50 55 56 57 54 53
14 6 7 6 2 4 5 6 8 10 9 11 10 7 7 11 12 13 14 14 14 10 10 8 11 14 18 24 31 35 34 34 35 38 37 35 34 38 49 53 52 52 57
12 7 7 6 5 2 3 6 8 8 11 8 6 6 7 8 12 15 17 19 18 15 16 15 15 21 22 26 33 31 32 37 39 41 46 50 56 56 57 57 59 55 46
12 13 10 12 8 5 7 5 6 10 12 11 8 9 11 13 13 15 23 19 19 16 15 18 23 25 28 32 34 34 35 37 35 40 44 46 48 46 49 53 56 53 55
14 14 12 15 11 9 14 7 9 10 13 16 13 13 17 17 19 20 20 19 18 14 23 18 15 22 25 26 26 31 33 37 36 40 39 45 46 45 55 57 52 48 43
20 19 18 16 18 17 18 14 12 15 17 19 16 17 18 22 20 17 28 20 17 19 16 24 25 21 22 21 20 23 26 37 51 49 40 37 50 45 52 42 35 38 45
16 21 24 23 26 26 24 22 22 24 22 20 19 20 21 19 18 22 20 18 16 21 26 16 10 23 26 17 21 34 46 55 45 41 37 42 49 47 37 39 31 37 39
15 30 26 26 32 35 33 30 29 25 23 22 23 24 21 18 22 25 19 23 23 9 12 19 21 17 19 25 41 52 53 44 36 37 45 49 42 33 38 35 37 38 37
24 34 31 36 38 41 38 38 31 26 23 22 21 24 22 22 24 21 20 18 23 28 31 30 24 19 21 25 37 53 59 50 44 43 41 23 34 37 29 23 32 31 35
40 44 42 47 48 46 43 41 33 30 27 22 21 26 29 32 16 27 27 24 33 28 27 18 16 19 20 28 37 51 64 46 34 32 20 31 23 23 34 37 45 47 34
45 45 48 53 58 57 47 32 34 34 25 17 16 29 36 27 18 29 29 20 27 24 23 25 21 22 19 29 36 56 53 28 22 27 28 23 35 30 33 42 43 48 34
Wind_Direction_850mb
145 149 170 196 267 243 215 198 191 205 213 218 220 214 225 231 234 236 239 229 245 223 241 262 266 285 233 239 266 261 291 318 271 291 266 264 224 217 227 245 239 254 239
171 164 189 207 236 276 259 236 209 218 213 207 224 228 234 243 238 247 229 230 234 230 231 259 215 268 253 269 306 274 218 221 270 282 319 259 223 245 251 228 241 248 250
46 178 204 213 232 269 275 253 233 229 220 190 229 234 228 216 220 245 239 237 242 227 231 241 258 237 257 249 279 301 244 248 310 264 304 317 2 320 273 248 242 251 253
188 174 223 233 223 236 265 270 249 225 231 196 210 237 249 248 270 247 247 246 257 250 223 242 247 248 250 217 264 291 280 268 282 309 265 261 293 305 294 304 268 291 276
144 192 201 143 183 217 232 264 270 240 221 247 210 235 264 239 271 264 246 246 243 243 244 229 246 255 254 227 234 245 258 251 249 262 289 310 269 280 281 292 290 297 291
139 78 54 46 39 86 189 237 237 258 260 240 268 232 222 251 251 269 234 248 250 253 257 231 238 252 253 254 240 253 262 259 248 243 252 274 290 286 292 277 292 289 296
57 57 57 36 36 27 22 347 259 241 262 260 264 277 277 259 252 263 247 248 244 240 252 259 236 245 264 257 248 242 253 256 272 258 252 254 258 269 276 291 282 289 281
51 57 85 51 28 18 24 10 358 242 246 280 274 288 278 272 277 279 278 252 243 252 241 251 249 241 255 263 257 251 255 258 263 269 261 266 264 264 262 272 284 294 288
85 62 87 69 40 31 47 37 10 334 297 267 285 298 290 273 280 261 264 261 245 246 272 232 239 250 262 263 258 256 251 263 252 261 270 272 275 277 275 261 267 282 285
75 56 83 71 53 35 28 25 20 338 308 326 307 304 304 289 289 281 277 246 244 239 234 244 255 259 267 262 261 263 258 262 265 261 267 271 278 278 278 263 282 276 282
62 55 73 61 62 36 25 22 24 31 6 347 357 353 328 321 312 305 292 267 254 248 237 249 252 264 276 269 265 260 254 254 269 263 272 279 282 278 277 269 268 272 269
85 63 51 52 58 45 31 23 27 8 1 347 337 318 339 334 311 306 298 281 254 248 253 266 266 272 278 275 280 273 268 260 255 270 278 281 280 277 275 267 284 280 274
79 73 36 44 52 43 28 29 25 10 3 358 9 350 349 349 344 342 319 291 257 263 261 260 263 264 268 274 286 288 287 293 260 276 278 282 281 277 275 283 283 271 270
73 72 45 40 41 35 22 37 23 5 5 353 352 359 353 355 354 349 346 316 276 270 277 275 276 280 268 273 276 275 272 280 285 286 280 276 279 282 291 283 282 280 279
74 55 54 43 27 22 26 22 19 357 359 349 345 357 8 336 344 2 7 359 315 282 279 283 289 293 289 301 289 278 288 290 292 289 286 288 287 288 289 292 293 282 269
65 53 44 52 37 20 13 356 1 349 355 352 350 339 12 6 7 359 3 7 359 316 320 312 299 314 329 291 287 288 295 297 295 294 288 280 277 280 291 289 290 284 281
96 75 76 81 77 31 353 343 329 339 333 338 343 2 359 345 349 341 337 349 342 340 316 303 300 289 279 291 296 301 306 310 311 308 309 313 310 295 294 292 288 291 285
123 133 133 133 169 197 279 312 309 319 303 293 312 302 312 313 320 324 319 325 328 330 321 326 323 305 313 301 303 312 316 317 319 322 320 312 309 306 304 304 301 298 296
159 167 167 185 198 182 241 276 300 292 299 269 284 278 295 293 290 293 294 305 306 322 352 323 298 296 297 299 313 318 319 321 313 310 314 313 308 318 319 322 319 310 301
189 182 177 203 206 211 233 242 255 278 283 265 256 264 284 285 288 292 308 314 311 323 292 313 353 328 313 302 305 306 310 315 319 317 315 313 311 317 320 320 322 323 321
209 202 195 211 218 223 230 238 240 252 258 247 254 255 265 270 306 268 298 309 313 314 348 339 324 323 357 349 329 328 330 332 333 329 321 313 313 321 324 325 332 342 339
227 240 229 221 235 237 235 237 238 248 250 261 249 262 263 279 278 293 302 322 320 327 325 351 16 2 349 346 345 337 330 326 326 329 325 305 309 314 319 320 322 325 325
219 236 242 235 229 232 234 236 244 249 250 261 257 267 262 265 272 291 293 306 323 341 320 329 328 340 356 343 330 328 329 329 319 312 305 311 315 325 321 321 324 315 320
266 253 251 241 235 234 235 241 238 240 244 250 259 273 267 262 255 272 302 295 281 293 298 313 294 296 304 310 330 344 340 330 326 322 325 335 346 348 3 341 340 337 327
289 275 261 249 238 229 233 231 236 242 242 239 252 241 258 272 250 280 280 266 283 287 290 289 286 290 303 308 330 339 341 328 329 338 355 348 342 322 335 340 333 333 333
294 294 276 256 238 220 202 222 236 236 227 229 246 293 292 292 277 266 293 283 297 288 274 271 258 288 303 321 331 335 338 327 332 339 334 346 346 346 332 330 330 330 331